Change the Weather History Date:

Thursday, March 20, 2014

  Actual Average Record
Temperature  
Mean Temperature 58 °F -  
Max Temperature 69 °F 72 °F 89 °F (1982)
Min Temperature 48 °F 49 °F 34 °F (1985)
Degree Days  
Heating Degree Days 6    
Growing Degree Days 8 (Base 50)    
Moisture  
Dew Point 51 °F    
Average Humidity 87    
Maximum Humidity 100    
Minimum Humidity 46    
Precipitation  
Precipitation 0.00 in - - ()
Sea Level Pressure  
Sea Level Pressure 30.06 in    
Wind  
Wind Speed 4 mph (SSW)    
Max Wind Speed 9 mph    
Max Gust Speed -    
Visibility 7 miles    
Events      
Averages and records for this station are not official NWS values.
T = Trace of Precipitation, MM = Missing Value Source: NWS Daily Summary

Daily Weather History Graph

Daily Weather History Graph

Search for Another Location

Airport or City:

Trip Planner

Search our weather history database for the weather conditions in past years. The results will help you decide how hot, cold, wet, or windy it might be!

Date:

Astronomy

Mar. 20, 2014 Rise Set
Actual Time 7:26 AM EDT 7:34 PM EDT
Civil Twilight 7:02 AM EDT 7:58 PM EDT
Nautical Twilight 6:33 AM EDT 8:27 PM EDT
Astronomical Twilight 6:04 AM EDT 8:56 PM EDT
Moon 11:37 PM EDT (3/20) 9:45 AM EDT (3/20)
Length of Visible Light 12h 56m
Length of Day
12h 07m
Waning Gibbous, 84% of the Moon is Illuminated
Mar 20
Waning Gibbous
Mar 23
Last Quarter
Mar 30
New
Apr 7
First Quarter
Apr 15
Full

Hourly Weather History & Observations

Time (EDT) Temp. Dew Point Humidity Pressure Visibility Wind Dir Wind Speed Gust Speed Precip Events Conditions
12:15 AM 48.2 °F 48.2 °F 100% 30.09 in 1.8 mi South 3.5 mph - 0.00 in   Clear
12:35 AM 48.2 °F 48.2 °F 100% 30.09 in 2.5 mi Calm Calm - 0.00 in   Clear
12:55 AM 48.2 °F 48.2 °F 100% 30.09 in 1.8 mi South 3.5 mph - 0.00 in   Clear
1:15 AM 48.2 °F 48.2 °F 100% 30.08 in 2.5 mi South 3.5 mph - 0.00 in   Clear
1:35 AM 48.2 °F 48.2 °F 100% 30.08 in 2.5 mi South 4.6 mph - 0.00 in   Clear
1:55 AM 48.2 °F 48.2 °F 100% 30.07 in 2.0 mi South 3.5 mph - 0.00 in   Clear
2:15 AM 48.2 °F 48.2 °F 100% 30.07 in 2.5 mi SSW 3.5 mph - 0.00 in   Clear
2:35 AM 48.2 °F 48.2 °F 100% 30.06 in 3.0 mi SSW 4.6 mph - 0.00 in   Clear
2:55 AM 50.0 °F 50.0 °F 100% 30.06 in 4.0 mi SSW 3.5 mph - 0.00 in   Clear
3:15 AM 51.8 °F 51.8 °F 100% 30.06 in 5.0 mi SSW 5.8 mph - 0.00 in   Clear
3:35 AM 51.8 °F 51.8 °F 100% 30.06 in 4.0 mi SSW 5.8 mph - 0.00 in   Clear
3:55 AM 51.8 °F 51.8 °F 100% 30.05 in 5.0 mi SSW 4.6 mph - 0.00 in   Clear
4:15 AM 51.8 °F 50.0 °F 94% 30.05 in 3.0 mi SSW 4.6 mph - 0.00 in   Clear
4:35 AM 51.8 °F 50.0 °F 94% 30.05 in 4.0 mi SSW 4.6 mph - 0.00 in   Clear
4:55 AM 50.0 °F 50.0 °F 100% 30.05 in 3.0 mi SSW 4.6 mph - 0.00 in   Clear
5:15 AM 51.8 °F 51.8 °F 100% 30.05 in 4.0 mi SSW 4.6 mph - 0.00 in   Clear
5:35 AM 51.8 °F 51.8 °F 100% 30.06 in 5.0 mi SW 6.9 mph - 0.00 in   Clear
7:50 AM 50.0 °F 50.0 °F 100% - 6.0 mi South 4.6 mph - N/A   Clear
8:50 AM 55.4 °F 51.8 °F 88% - 10.0 mi WSW 6.9 mph - N/A   Clear
9:50 AM 62.6 °F 51.8 °F 68% - 10.0 mi WSW 9.2 mph - N/A   Clear
10:50 AM 62.6 °F 53.6 °F 72% - 10.0 mi WSW 9.2 mph - N/A   Clear
11:50 AM 66.2 °F 50.0 °F 56% - 10.0 mi West 4.6 mph - N/A   Clear
12:50 PM 68.0 °F 46.4 °F 46% - 10.0 mi West 4.6 mph - N/A   Clear
1:50 PM 69.8 °F 48.2 °F 46% - 10.0 mi West 4.6 mph - N/A   Clear
2:50 PM 66.2 °F 55.4 °F 68% - 7.0 mi SE 6.9 mph - N/A   Clear
4:50 PM 64.4 °F 50.0 °F 59% - 7.0 mi South 8.1 mph - N/A   Clear
5:50 PM 64.4 °F 51.8 °F 64% - 10.0 mi South 8.1 mph - N/A   Clear
6:50 PM 62.6 °F 53.6 °F 72% - 10.0 mi South 3.5 mph - N/A   Clear
7:50 PM 64.4 °F 55.4 °F 73% - 10.0 mi South 4.6 mph - N/A   Clear
8:15 PM 60.8 °F 53.6 °F 77% 30.02 in 10.0 mi South 5.8 mph - 0.00 in   Clear
8:35 PM 59.0 °F 53.6 °F 82% 30.02 in 10.0 mi SSW 3.5 mph - 0.00 in   Clear
8:55 PM 57.2 °F 53.6 °F 88% 30.03 in 9.0 mi SSW 3.5 mph - 0.00 in   Clear
9:15 PM 57.2 °F 53.6 °F 88% 30.04 in 10.0 mi SSW 3.5 mph - 0.00 in   Clear
9:35 PM 57.2 °F 53.6 °F 88% 30.05 in 9.0 mi South 3.5 mph - 0.00 in   Clear
9:55 PM 55.4 °F 53.6 °F 94% 30.05 in 9.0 mi Calm Calm - 0.00 in   Clear
10:15 PM 55.4 °F 53.6 °F 94% 30.05 in 9.0 mi South 4.6 mph - 0.00 in   Clear
10:35 PM 55.4 °F 53.6 °F 94% 30.05 in 10.0 mi South 3.5 mph - 0.00 in   Clear
10:55 PM 55.4 °F 53.6 °F 94% 30.05 in 9.0 mi South 4.6 mph - 0.00 in   Clear
11:15 PM 55.4 °F 53.6 °F 94% 30.06 in 9.0 mi South 4.6 mph - 0.00 in   Clear
11:35 PM 55.4 °F 53.6 °F 94% 30.06 in 9.0 mi South 3.5 mph - 0.00 in   Clear
11:55 PM 55.4 °F 53.6 °F 94% 30.06 in 9.0 mi Calm Calm - 0.00 in   Clear